This demonstration page uses our WeatherBlox Daily Observations layout. Learn more.

Left ArrowRight Arrow

39.01783, -85.05884

Hourly Observations for March 18, 2015

Temp ( °F °C ) Dew Point ( °F °C ) Humidity (%) Winds ( mph kmh ) Pressure ( in mb ) Visibility ( mi km ) Precip ( " mm )
12:52 am 00:52 Clear 34 1.1 13 -10.6 42 42 N 14 22 30.30 1026 10 16 0.00 0.00
1:52 am 01:52 Mostly Cloudy 34 1.1 13 -10.6 42 42 N 9 15 30.29 1026 10 16 0.00 0.00
2:52 am 02:52 Mostly Cloudy 33 0.6 13 -10.6 43 43 N 13 20 30.30 1026 10 16 0.00 0.00
3:52 am 03:52 Mostly Clear 33 0.6 12 -11.1 42 42 NE 10 17 30.29 1026 10 16 0.00 0.00
4:52 am 04:52 Clear 32 0 12 -11.1 43 43 NNE 8 13 30.29 1026 10 16 0.00 0.00
5:52 am 05:52 Clear 32 0 12 -11.1 43 43 NE 8 13 30.30 1026 10 16 0.00 0.00
6:52 am 06:52 Clear 31 -0.6 13 -10.6 47 47 ENE 7 11 30.32 1027 10 16 0.00 0.00
7:52 am 07:52 Partly Cloudy 30 -1.1 14 -10 51 51 NNE 5 7 30.34 1028 10 16 0.00 0.00
8:52 am 08:52 Partly Cloudy 33 0.6 15 -9.4 47 47 Calm 30.37 1028 10 16 0.00 0.00
9:52 am 09:52 Partly Cloudy 36 2.2 14 -10 40 40 E 6 9 30.36 1028 10 16 0.00 0.00
10:52 am 10:52 Mostly Cloudy 38 3.3 11 -11.7 33 33 E 9 15 30.35 1028 10 16 0.00 0.00
11:52 am 11:52 Mostly Cloudy 41 5 11 -11.7 29 29 ENE 9 15 30.34 1028 10 16 0.00 0.00
12:52 pm 12:52 Mostly Cloudy 40 4.4 9 -12.8 28 28 E 8 13 30.33 1027 10 16 0.00 0.00
1:52 pm 13:52 Mostly Cloudy 45 7.2 11 -11.7 25 25 undefined N/A 30.30 1026 10 16 0.00 0.00
2:52 pm 14:52 Mostly Cloudy 46 7.8 12 -11.1 25 25 ENE 9 15 30.27 1025 10 16 0.00 0.00
3:52 pm 15:52 Mostly Cloudy 46 7.8 10 -12.2 23 23 Calm 30.25 1024 10 16 0.00 0.00
4:52 pm 16:52 Cloudy 47 8.3 12 -11.1 24 24 VRB 5 7 30.23 1024 10 16 0.00 0.00
5:52 pm 17:52 Cloudy 46 7.8 13 -10.6 26 26 NNW 3 6 30.23 1024 10 16 0.00 0.00
6:52 pm 18:52 Cloudy 46 7.8 13 -10.6 26 26 ENE 6 9 30.24 1024 10 16 0.00 0.00
7:52 pm 19:52 Cloudy 45 7.2 13 -10.6 27 27 NE 6 9 30.25 1024 10 16 0.00 0.00
8:52 pm 20:52 Cloudy 44 6.7 17 -8.3 34 34 E 5 7 30.24 1024 10 16 0.00 0.00
9:52 pm 21:52 Cloudy 43 6.1 18 -7.8 37 37 E 3 6 30.24 1024 10 16 0.00 0.00
10:52 pm 22:52 Cloudy 43 6.1 18 -7.8 37 37 E 7 11 30.24 1024 10 16 0.00 0.00
11:52 pm 23:52 Cloudy 43 6.1 19 -7.2 38 38 ENE 7 11 30.22 1023 10 16 0.00 0.00

Powered by AerisWeather